Hourly Data Report for October 12, 2012

BAGOTVILLE A
QUEBEC

48°20'00.000" N
71°00'00.000" W
159.10 m
7060400
71727
YBG

Download Data

Hourly Data (October 2012)
Hourly Data Report for October 12, 2012
TIME
LST
Temp Definition
°C
Dew Point Definition
°C
Rel Hum Definition
%
Precip. Amount Definition
mm

Wind Dir Definition
10's deg

Wind Spd Definition
km/h
Visibility Definition
km
Stn Press Definition
kPa
Hmdx Definition


Wind Chill Definition


Weather Definition


00:00 1.5 -0.7 85   23 9 24.1 99.21     Snow Showers
01:00 1.0 0.0 93   21 6 4.8 99.12     Snow Showers, Fog
02:00 0.2 -0.3 96   21 4 2.4 99.06     Snow, Fog
03:00 0.3 -0.2 96     0 2.4 99.10     Snow, Fog
04:00 0.3 -0.2 96   32 11 4.8 99.13     Snow, Fog
05:00 0.3 -0.2 96   31 7 4.8 99.24     Snow, Fog
06:00 0.1 -0.4 96   29 9 4.8 99.34     Snow, Fog
07:00 -0.1 -1.4 91   26 7 24.1 99.45   -3 Mostly Cloudy
08:00 0.8 -1.2 86   29 19 32.2 99.54     Mainly Clear
09:00 1.6 -1.7 79   31 20 40.2 99.65     Mainly Clear
10:00 1.0 -3.0 75   32 30 32.2 99.77     Cloudy
11:00 0.9 -2.6 77   30 22 40.2 99.80     Cloudy
12:00 1.8 -2.9 71   28 22 40.2 99.80     Cloudy
13:00 2.8 -4.1 60   29 28 32.2 99.80     Cloudy
14:00 2.8 -1.7 72   27 20 40.2 99.83     Cloudy
15:00 3.9 -1.8 66   27 24 40.2 99.84     Mostly Cloudy
16:00 3.9 -1.8 66   27 24 40.2 99.87     Mostly Cloudy
17:00 2.6 -1.9 72   27 20 40.2 99.96     Mostly Cloudy
18:00 1.9 -2.8 71   29 11 24.1 100.06     Mostly Cloudy
19:00 3.0 -6.2 51   30 19 24.1 100.15     Mostly Cloudy
20:00 2.8 -6.9 49   31 19 24.1 100.22     Mostly Cloudy
21:00 2.2 -5.0 59   28 17 24.1 100.29     Mostly Cloudy
22:00 1.3 -4.1 67   27 15 24.1 100.34     Cloudy
23:00 1.1 -3.5 71   27 19 24.1 100.34     Cloudy

Notes on Data Quality.

Legend

  • E = Estimated
  • M = Missing
  • NA = Not Available*
  • [empty] = Indicates an unobserved value
Date modified: